Saginaw, MI

3:25 PM EDT on September 30, 2016 (GMT -0400)
Saginaw County-Browne

Weather History for KHYX - October, 2012

Change the Weather History Date:

Wednesday, October 3, 2012

  Actual Average (KMBS) Record (KMBS)
Temperature  
Mean Temperature 58 °F 54 °F  
Max Temperature 62 °F 65 °F 87 °F (2005)
Min Temperature 55 °F 44 °F 32 °F (1996)
Degree Days  
Heating Degree Days 6    
Month to date heating degree days  
Since 1 July heating degree days  
Cooling Degree Days 0    
Month to date cooling degree days  
Year to date cooling degree days  
Growing Degree Days 8 (Base 50)    
Moisture  
Dew Point 57 °F    
Average Humidity 95    
Maximum Humidity 100    
Minimum Humidity 82    
Precipitation  
Precipitation 0.00 in 0.10 in 0.63 in (2014)
Month to date precipitation 0.30  
Year to date precipitation 24.65  
Snow  
Snow 0.00 in - - ()
Month to date snowfall  
Since 1 July snowfall  
Since 1 September snowfall  
Snow Depth -    
Sea Level Pressure  
Sea Level Pressure 29.98 in    
Wind  
Wind Speed 1 mph (South)    
Max Wind Speed 8 mph    
Max Gust Speed -    
Visibility 8 miles    
Events Rain    
T = Trace of Precipitation, MM = Missing Value Source: NWS Daily Summary

Daily Weather History Graph

Daily Weather History Graph

Search for Another Location

Airport or City:

Trip Planner

Search our weather history database for the weather conditions in past years. The results will help you decide how hot, cold, wet, or windy it might be!

Date:

Astronomy

Oct. 03, 2012 Rise Set
Actual Time 7:35 AM EDT 7:12 PM EDT
Civil Twilight 7:07 AM EDT 7:40 PM EDT
Nautical Twilight 6:34 AM EDT 8:13 PM EDT
Astronomical Twilight 6:00 AM EDT 8:46 PM EDT
Moon 8:56 PM EDT (10/3) 11:05 AM EDT (10/3)
Length of Visible Light 12h 33m
Length of Day
11h 36m
Waning Gibbous, 89% of the Moon is Illuminated
Oct 3
Waning Gibbous
Oct 8
Last Quarter
Oct 15
New
Oct 21
First Quarter
Oct 29
Full

Hourly Weather History & Observations

Time (EDT) Temp. Dew Point Humidity Pressure Visibility Wind Dir Wind Speed Gust Speed Precip Events Conditions
12:12 AM 55.4 °F 50.0 °F 82% 29.94 in 10.0 mi Calm Calm - N/A   Overcast
12:32 AM 55.4 °F 51.8 °F 88% 29.94 in 10.0 mi Calm Calm - N/A   Overcast
12:52 AM 55.4 °F 51.8 °F 88% 29.94 in 10.0 mi Calm Calm - N/A   Overcast
1:12 AM 55.4 °F 51.8 °F 88% 29.94 in 10.0 mi Calm Calm - N/A   Overcast
1:32 AM 55.4 °F 51.8 °F 88% 29.93 in 10.0 mi Calm Calm - N/A Rain Light Rain
1:52 AM 55.4 °F 51.8 °F 88% 29.93 in 10.0 mi Calm Calm - N/A   Overcast
2:12 AM 57.2 °F 53.6 °F 88% 29.93 in 10.0 mi NNE 3.5 mph - N/A   Overcast
2:32 AM 57.2 °F 53.6 °F 88% 29.93 in 10.0 mi NNE 4.6 mph - N/A Rain Light Rain
2:52 AM 57.2 °F 55.4 °F 94% 29.93 in 10.0 mi Calm Calm - N/A Rain Rain
3:13 AM 57.2 °F 55.4 °F 94% 29.93 in 10.0 mi Calm Calm - N/A Rain Light Rain
3:33 AM 57.2 °F 55.4 °F 94% 29.93 in 10.0 mi Calm Calm - N/A   Overcast
3:53 AM 57.2 °F 55.4 °F 94% 29.93 in 10.0 mi Calm Calm - N/A   Overcast
4:13 AM 55.4 °F 55.4 °F 100% 29.94 in 10.0 mi Calm Calm - N/A   Overcast
4:33 AM 55.4 °F 55.4 °F 100% 29.94 in 10.0 mi Calm Calm - N/A   Overcast
5:13 AM 55.4 °F 55.4 °F 100% 29.94 in 10.0 mi Calm Calm - N/A   Overcast
5:33 AM 55.4 °F 55.4 °F 100% 29.94 in 10.0 mi Calm Calm - N/A   Overcast
5:53 AM 55.4 °F 55.4 °F 100% 29.94 in 10.0 mi Calm Calm - N/A   Overcast
6:13 AM 55.4 °F 55.4 °F 100% 29.95 in 10.0 mi Calm Calm - N/A   Overcast
6:54 AM 55.4 °F 55.4 °F 100% 29.96 in 10.0 mi Calm Calm - N/A   Overcast
7:14 AM 57.2 °F 55.4 °F 94% 29.96 in 10.0 mi Calm Calm - N/A   Overcast
7:34 AM 57.2 °F 57.2 °F 100% 29.97 in 10.0 mi Calm Calm - N/A   Overcast
7:54 AM 57.2 °F 55.4 °F 94% 29.97 in 10.0 mi Calm Calm - N/A   Overcast
8:14 AM 57.2 °F 57.2 °F 100% 29.97 in 10.0 mi Calm Calm - N/A   Overcast
8:29 AM 57.2 °F 55.4 °F 94% 29.98 in 10.0 mi Calm Calm - N/A   Overcast
8:49 AM 57.2 °F 57.2 °F 100% 29.99 in 10.0 mi Calm Calm - N/A   Overcast
9:09 AM 59.0 °F 57.2 °F 94% 29.98 in 10.0 mi Calm Calm - N/A   Overcast
9:30 AM 59.0 °F 57.2 °F 94% 29.99 in 10.0 mi Calm Calm - N/A   Overcast
9:50 AM 59.0 °F 57.2 °F 94% 29.99 in 10.0 mi Calm Calm - N/A   Overcast
10:10 AM 59.0 °F 57.2 °F 94% 29.99 in 10.0 mi Calm Calm - N/A   Overcast
10:30 AM 60.8 °F 57.2 °F 88% 29.99 in 7.0 mi Calm Calm - N/A   Overcast
11:10 AM 60.8 °F 59.0 °F 94% 29.99 in 7.0 mi Calm Calm - N/A   Overcast
11:30 AM 60.8 °F 59.0 °F 94% 29.99 in 7.0 mi Calm Calm - N/A   Overcast
11:51 AM 60.8 °F 59.0 °F 94% 29.99 in 5.0 mi Calm Calm - N/A   Overcast
12:11 PM 60.8 °F 59.0 °F 94% 29.99 in 1.2 mi Calm Calm - N/A   Overcast
12:31 PM 60.8 °F 60.8 °F 100% 29.99 in 1.0 mi Calm Calm - N/A   Overcast
12:51 PM 60.8 °F 60.8 °F 100% 29.99 in 0.8 mi Calm Calm - N/A Rain Rain
1:01 PM 60.8 °F 60.8 °F 100% 29.99 in 0.8 mi Calm Calm - N/A   Light Drizzle
1:31 PM 60.8 °F 60.8 °F 100% 29.99 in 1.8 mi Calm Calm - N/A   Drizzle
1:51 PM 60.8 °F 60.8 °F 100% 29.99 in 2.5 mi Calm Calm - N/A   Overcast
2:01 PM 60.8 °F 60.8 °F 100% 29.99 in 4.0 mi WSW 3.5 mph - N/A   Light Drizzle
2:32 PM 60.8 °F 60.8 °F 100% 29.99 in 7.0 mi WSW 3.5 mph - N/A   Overcast
2:52 PM 60.8 °F 60.8 °F 100% 29.99 in 7.0 mi Calm Calm - N/A   Overcast
3:12 PM 60.8 °F 60.8 °F 100% 29.99 in 7.0 mi West 4.6 mph - N/A   Overcast
3:32 PM 62.6 °F 59.0 °F 88% 29.99 in 10.0 mi Calm Calm - N/A   Overcast
3:52 PM 60.8 °F 59.0 °F 94% 29.99 in 10.0 mi Calm Calm - N/A   Overcast
4:12 PM 62.6 °F 59.0 °F 88% 29.99 in 10.0 mi Calm Calm - N/A   Overcast
4:32 PM 60.8 °F 59.0 °F 94% 29.99 in 10.0 mi Calm Calm - N/A   Overcast
4:52 PM 60.8 °F 59.0 °F 94% 29.99 in 7.0 mi Calm Calm - N/A   Overcast
5:12 PM 62.6 °F 59.0 °F 88% 30.00 in 10.0 mi Calm Calm - N/A   Overcast
5:33 PM 62.6 °F 59.0 °F 88% 30.00 in 7.0 mi Calm Calm - N/A   Overcast
5:53 PM 60.8 °F 59.0 °F 94% 30.00 in 7.0 mi Calm Calm - N/A   Overcast
6:13 PM 60.8 °F 59.0 °F 94% 30.01 in 7.0 mi Calm Calm - N/A   Overcast
6:33 PM 60.8 °F 60.8 °F 100% 30.01 in 5.0 mi Calm Calm - N/A   Light Drizzle
6:53 PM 60.8 °F 60.8 °F 100% 30.02 in 5.0 mi Calm Calm - N/A   Overcast
7:13 PM 60.8 °F 60.8 °F 100% 30.02 in 7.0 mi Calm Calm - N/A   Overcast
7:33 PM 60.8 °F 60.8 °F 100% 30.02 in 7.0 mi Calm Calm - N/A   Overcast
7:53 PM 60.8 °F 59.0 °F 94% 30.02 in 5.0 mi SE 3.5 mph - N/A   Overcast
8:13 PM 59.0 °F 59.0 °F 100% 30.02 in 7.0 mi SSE 4.6 mph - N/A   Overcast
8:34 PM 59.0 °F 59.0 °F 100% 30.02 in 7.0 mi South 3.5 mph - N/A   Overcast
8:54 PM 59.0 °F 59.0 °F 100% 30.02 in 7.0 mi Calm Calm - N/A   Overcast
9:14 PM 59.0 °F 59.0 °F 100% 30.03 in 7.0 mi South 3.5 mph - N/A   Overcast
9:34 PM 59.0 °F 59.0 °F 100% 30.03 in 10.0 mi South 3.5 mph - N/A   Overcast
9:54 PM 59.0 °F 57.2 °F 94% 30.03 in 10.0 mi South 4.6 mph - N/A   Overcast
10:14 PM 59.0 °F 57.2 °F 94% 30.04 in 10.0 mi South 5.8 mph - N/A   Overcast
10:34 PM 60.8 °F 55.4 °F 82% 30.03 in 10.0 mi South 8.1 mph - N/A   Overcast
10:54 PM 59.0 °F 55.4 °F 88% 30.04 in 10.0 mi South 6.9 mph - N/A   Overcast
11:09 PM 59.0 °F 55.4 °F 88% 30.04 in 10.0 mi South 6.9 mph - N/A   Overcast
11:29 PM 60.8 °F 55.4 °F 82% 30.04 in 10.0 mi South 6.9 mph - N/A   Overcast
11:50 PM 59.0 °F 55.4 °F 88% 30.04 in 10.0 mi South 5.8 mph - N/A   Overcast